Location: Chervonnoye
(48.6000°N, 34.4000°E)
Time: 08:46:13
(UTC+00:00)

KAITUO 1B - Pass Details

Date: 06 December 2021
Orbit: 486 x 507 km, 97.4° (Epoch: 18 January)

Event Time Altitude Azimuth Distance (km) Brightness Sun altitude
Rises 14:46:44 0° 149° (SSE) 2,601 ? -9.4°
Reaches altitude 10° 14:48:52 10° 143° (SE) 1,724 ? -9.8°
Maximum altitude 14:52:24 43° 71° (ENE) 730 ? -10.3°
Drops below altitude 10° 14:55:58 10° 359° (N) 1,744 ? -10.8°
Sets 14:58:08 0° 353° (N) 2,636 ? -11.2°
